Regional Weather Roundup
Issued by NWS Sioux Falls, SD

Home | Current Version | Previous Version | Graphics & Text | Print | Product List | Glossary Off
Versions: 1 2 3 4 5 6 7 8 9 10 11 12 13 14 15 16 17 18 19 20 21 22 23 24 25 26 27 28 29 30 31 32 33 34 35 36 37 38 39 40 41 42 43 44 45 46 47 48 49 50

000
ASUS43 KFSD 180010
RWRFSD

WEATHER ROUNDUP FOR SE SOUTH DAKOTA/SW MINNESOTA/NW IOWA
NATIONAL WEATHER SERVICE SIOUX FALLS SD
700 PM CDT FRI APR 17 2015

NOTE: "FAIR" INDICATES FEW OR NO CLOUDS BELOW 12,000 FEET WITH NO
SIGNIFICANT WEATHER AND OR OBSTRUCTIONS TO VISIBILITY.


SDZ038>040-050-052>070-180100-
SOUTHEAST SOUTH DAKOTA

CITY           SKY/WX    TMP DP  RH WIND       PRES   REMARKS
BROOKINGS      SUNNY     72  27  18 N9        30.05S
CHAMBERLAIN    CLOUDY    68  36  30 NE3       30.05S
6HR MIN TEMP:  67; 6HR MAX TEMP:  71;

HURON          PTSUNNY   71  31  22 NE6       30.04F
6HR MIN TEMP:  70; 6HR MAX TEMP:  75;

MADISON        FAIR      68  30  24 N7        30.05S
MITCHELL       CLOUDY    72  33  24 N10       30.04S
6HR MIN TEMP:  72; 6HR MAX TEMP:  76;

SIOUX FALLS    CLOUDY    71  42  35 N7        30.02F
6HR MIN TEMP:  71; 6HR MAX TEMP:  76;

WINNER         LGT RAIN  59  52  77 SW9       30.08S
YANKTON        CLOUDY    66  52  59 NW5       30.01F
$$

MNZ071-072-080-081-089-090-097-098-180100-
SOUTHWEST MINNESOTA

CITY           SKY/WX    TMP DP  RH WIND       PRES   REMARKS
FAIRMONT       PTSUNNY   73  37  27 NW9       30.01S
JACKSON        CLOUDY    73  32  21 N5        30.03F
LUVERNE        CLOUDY    73  37  27 CALM      30.03S
MARSHALL       SUNNY     72  16  12 N9        30.04S
6HR MIN TEMP:  68; 6HR MAX TEMP:  73;

MONTEVIDEO     SUNNY     72  19  14 N6        30.05S
PIPESTONE      MOSUNNY   72  25  17 NE9       30.04S
REDWOOD FALLS  SUNNY     74  22  14 NW9       30.02F
TRACY          SUNNY     72  21  14 N8        30.04S
WORTHINGTON    PTSUNNY   72  36  26 N10       30.04S
$$

IAZ001>003-012>014-020>022-031-032-NEZ013-014-SDZ071-180100-
NORTHWEST IOWA

CITY           SKY/WX    TMP DP  RH WIND       PRES   REMARKS
CHEROKEE       CLOUDY    71  46  40 CALM      30.01S
DENISON        CLOUDY    73  50  43 E3        29.98S
ESTHERVILLE    CLOUDY    71  42  35 N9        30.02
LE MARS        CLOUDY    73  46  38 CALM      30.02S
ORANGE CITY    CLOUDY    72  43  35 CALM      30.02S
SHELDON        CLOUDY    73  43  33 CALM      30.01S
SIOUX CITY     CLOUDY    74  45  35 NE7       30.00S
6HR MIN TEMP:  71; 6HR MAX TEMP:  77;

SPENCER        CLOUDY    75  43  31 N5        30.02S
6HR MIN TEMP:  74; 6HR MAX TEMP:  79; 6HR PCP: TRACE;

STORM LAKE     CLOUDY    72  45  37 N7        30.02S
$$

ABBREVIATIONS USED IN REMARKS
   TC - TEMPERATURE IN CELSIUS
  WCI - WIND CHILL INDEX
   HX - HEAT INDEX
  VSB - VISIBILITY




USA.gov is the U.S. government's official web portal to all federal, state and local government web resources and services.